TimeEST,TemperatureF,Dew PointF,Humidity,Sea Level PressureIn,VisibilityMPH,Wind Direction,Wind SpeedMPH,Gust SpeedMPH,PrecipitationIn,Events,Conditions,WindDirDegrees,DateUTC
12:54 AM,30.0,28.9,96,30.05,10.0,Calm,Calm,-,N/A,,Overcast,0,2012-12-20 05:54:00
1:54 AM,30.0,28.9,96,30.07,10.0,Calm,Calm,-,N/A,,Overcast,0,2012-12-20 06:54:00
2:54 AM,28.0,27.0,96,30.09,10.0,Calm,Calm,-,N/A,,Partly Cloudy,0,2012-12-20 07:54:00
3:54 AM,26.1,25.0,96,30.10,10.0,Calm,Calm,-,N/A,,Partly Cloudy,0,2012-12-20 08:54:00
4:54 AM,25.0,23.0,92,30.10,10.0,Calm,Calm,-,N/A,,Mostly Cloudy,0,2012-12-20 09:54:00
5:54 AM,26.1,25.0,96,30.13,10.0,Calm,Calm,-,N/A,,Overcast,0,2012-12-20 10:54:00
6:54 AM,28.9,28.0,96,30.17,10.0,NW,3.5,-,N/A,,Overcast,310,2012-12-20 11:54:00
7:54 AM,30.0,28.9,96,30.19,10.0,ESE,3.5,-,0.00,,Overcast,110,2012-12-20 12:54:00
8:54 AM,32.0,30.9,96,30.20,10.0,Calm,Calm,-,N/A,,Overcast,0,2012-12-20 13:54:00
9:54 AM,33.1,30.9,92,30.22,10.0,Calm,Calm,-,N/A,,Overcast,0,2012-12-20 14:54:00
10:54 AM,35.1,32.0,89,30.19,10.0,Calm,Calm,-,0.00,,Overcast,0,2012-12-20 15:54:00
11:54 AM,37.0,30.0,76,30.19,-9999.0,Calm,Calm,-,0.01,Rain,Light Rain,0,2012-12-20 16:54:00
12:54 PM,37.0,28.9,73,30.16,10.0,Calm,Calm,-,0.00,,Overcast,0,2012-12-20 17:54:00
1:54 PM,37.0,28.0,70,30.15,10.0,Calm,Calm,-,N/A,,Overcast,0,2012-12-20 18:54:00
2:54 PM,36.0,28.0,73,30.15,10.0,ESE,3.5,-,N/A,,Overcast,120,2012-12-20 19:54:00
3:54 PM,36.0,28.0,73,30.15,10.0,Calm,Calm,-,N/A,,Overcast,0,2012-12-20 20:54:00
4:34 PM,33.8,28.4,81,30.15,10.0,Calm,Calm,-,N/A,,Overcast,0,2012-12-20 21:34:00
4:54 PM,34.0,28.9,82,30.16,10.0,Calm,Calm,-,N/A,,Overcast,0,2012-12-20 21:54:00
5:54 PM,33.1,28.9,85,30.15,10.0,Calm,Calm,-,N/A,,Overcast,0,2012-12-20 22:54:00
7:54 PM,33.1,28.9,85,30.14,10.0,SE,6.9,-,N/A,,Overcast,130,2012-12-21 00:54:00
8:54 PM,32.0,28.0,85,30.13,10.0,ESE,6.9,-,N/A,,Overcast,110,2012-12-21 01:54:00
9:54 PM,32.0,28.0,85,30.12,10.0,Calm,Calm,-,N/A,,Overcast,0,2012-12-21 02:54:00
10:54 PM,32.0,27.0,82,30.11,10.0,Calm,Calm,-,N/A,,Overcast,0,2012-12-21 03:54:00
11:54 PM,30.9,27.0,85,30.07,10.0,Calm,Calm,-,N/A,,Overcast,0,2012-12-21 04:54:00